Location: Crocus Hill
(18.2167°N, 63.0667°W)
Time: 02:28:23
(UTC+00:00)

Cosmos 2221 - Pass Details

Date: 26 January 2020
Orbit: 593 x 616 km, 82.5° (Epoch: 19 February)

Event Time Altitude Azimuth Distance (km) Brightness Sun altitude
Rises 00:08:10 0° 339° (NNW) 2,835 6.1 -29.6°
Reaches altitude 10° 00:10:35 10° 328° (NNW) 1,935 5.3 -30.1°
Maximum altitude 00:14:16 29° 268° (W) 1,120 4.4 -31.0°
Drops below altitude 10° 00:17:58 10° 209° (SSW) 1,944 5.5 -31.9°
Sets 00:20:24 0° 197° (SSW) 2,849 6.3 -32.4°
